Regional Weather Roundup
Issued by NWS

Home | Current Version | Previous Version | Text Only | Print | Product List | Glossary On
Versions: 1 2 3 4 5 6 7 8 9 10 11 12 13 14 15 16 17 18 19 20 21 22 23 24 25 26 27 28 29 30 31 32 33 34 35 36 37 38 39 40 41 42 43 44 45 46 47 48 49 50
000
ASCA44 KEWX 260320
RWRMX

LATIN AMERICA AND CARIBBEAN REGIONAL WEATHER ROUNDUP
NATIONAL WEATHER SERVICE AUSTIN/SAN ANTONIO TX
1000 PM CDT TUE JUL 25 2017

NOTE: "FAIR" INDICATED FEW OR NO CLOUDS BELOW 12,000 FEET WITH NO
SIGNIFICANT WEATHER AND/OR OBSTRUCTIONS TO VISIBILITY.

BAJA CALIFORNIA

CITY           SKY/WX    TMP DP  RH WIND       PRES   REMARKS
LA PAZ         PTCLDY    88  55  33 S6        29.91R
MEXICALI       PTCLDY    93  52  24 SE8       29.81R HX  90
S.J. DEL CABO  CLEAR     86  64  48 E9        29.92R
TIJUANA        PTCLDY    68  63  83 W6        30.01R

NORTHWESTERN MEXICO

CITY           SKY/WX    TMP DP  RH WIND       PRES   REMARKS
CULIACAN       MOCLDY    90  75  62 S6        29.89R HX 100
DURANGO        MOCLDY    72  59  64 W7        30.25R
GUAYMAS          N/A    N/A N/A N/A MISG        N/A
HERMOSILLO     PTCLDY    97  64  34 SW8       29.89R HX  99
CD. JUAREZ     MOCLDY    88  55  33 S9        30.10R
LOS MOCHIS     MOCLDY    88  73  62 NW3       29.91R HX  96

NORTHEASTERN MEXICO

CITY           SKY/WX    TMP DP  RH WIND       PRES   REMARKS
CHIHUAHUA      PTCLDY    75  61  60 CALM      30.14R
MONCLOVA         N/A    N/A N/A N/A MISG        N/A
MONTERREY      CLEAR     84  55  37 SE14      30.02R
REYNOSA          N/A    N/A N/A N/A MISG        N/A
SALTILLO       PTCLDY    73  57  56 N6        30.25S
TORREON        PTCLDY    90  55  31 NE15      30.05R
CD. VICTORIA     N/A    N/A N/A N/A MISG        N/A

WESTERN MEXICO

CITY           SKY/WX    TMP DP  RH WIND       PRES   REMARKS
AGUASCALIENTES MOCLDY    66  57  72 S9        30.31S
COLIMA         CLOUDY    68  68 100 CALM      30.10R
DEL BAJIO      CLOUDY    61  59  94 CALM      30.35S
GUADALAJARA    MOCLDY    68  61  77 E3        30.22S
MAZATLAN       MOCLDY    86  75  70 NW7       29.90R HX  95
P. VALLARTA    MOCLDY    86  79  79 N5        29.93R HX  99
URUAPAN          N/A    N/A N/A N/A MISG        N/A
ZACATECAS        N/A    N/A N/A N/A MISG        N/A

CENTRAL MEXICO

CITY           SKY/WX    TMP DP  RH WIND       PRES   REMARKS
CUERNAVACA     DRIZZLE   66  63  88 E6        30.27R
MEXICO CITY    LGT RAIN  59  54  82 S5        30.42R
MORELIA        MOCLDY    64  63  94 CALM      30.31R
POZA RICA        N/A    N/A N/A N/A MISG        N/A
QUERETARO      MOCLDY    63  55  77 E6        30.37R
S. LUIS POTOSI PTCLDY    63  52  67 E6        30.33R
TAMPICO        MOCLDY    77  73  88 NE12      30.07R
TOLUCA           N/A    N/A N/A N/A MISG        N/A

SOUTHERN MEXICO

CITY           SKY/WX    TMP DP  RH WIND       PRES   REMARKS
ACAPULCO       MOCLDY    84  75  74 NE8       29.91F HX  92
B. DE HUATULCO   N/A    N/A N/A N/A MISG        N/A
P. ESCONDIDO     N/A    N/A N/A N/A MISG        N/A
VERACRUZ       MOCLDY    81  75  83 E2        30.05R THUNDER
ZIHUATANEJO      N/A    N/A N/A N/A MISG        N/A

YUCATAN PENINSULA

CITY           SKY/WX    TMP DP  RH WIND       PRES   REMARKS
CAMPECHE         N/A    N/A N/A N/A MISG        N/A
CANCUN         MOCLDY    84  79  84 NE6       30.05F HX  96
CHETUMAL       CLOUDY    81  77  89 CALM      30.03S
CD. DEL CARMEN   N/A    N/A N/A N/A MISG        N/A
COZUMEL        PTCLDY    84  79  84 E6        30.04S HX  96
MERIDA         MOCLDY    73  72  94 CALM      30.07R
MINATITLAN       N/A    N/A N/A N/A MISG        N/A
TAPACHULA      MOCLDY    79  75  89 CALM      29.87S
TUX. GUTIERREZ PTCLDY    81  70  69 S5        30.02R
VILLAHERMOSA   TSTM      73  72  94 E9        30.02R

CENTRAL AMERICA

CITY           SKY/WX    TMP DP  RH WIND       PRES   REMARKS

CARIBBEAN

CITY           SKY/WX    TMP DP  RH WIND       PRES   REMARKS
ARUBA          PTCLDY    82  77  83 E17       29.92R HX  91
CURACAO        PTCLDY    82  77  83 E9        29.94S HX  91
KINGSTON       PTCLDY    86  77  74 SE5       29.97S HX  97
NASSAU         PTCLDY    88  70  55 E6        30.11S HX  92
SAN JUAN       PTCLDY    79  75  89 S5        30.05S
SANTO DOMINGO  PTCLDY    79  75  89 NE7       30.03S THUNDER
ST. CROIX      CLEAR     79  75  89 NE6       30.04
ST. THOMAS     CLEAR     81  79  94 E8          N/A

$$




USA.gov is the U.S. government's official web portal to all federal, state and local government web resources and services.